Flag for Switzerland Weather past 2 weeks in Vevey, Vaud, Switzerland

Now
36 °F

Chilly.


Feels Like: 33 °F
Forecast: 35 / 43 °F
Wind: 3 mph from Southeast

Location: Aigle

Current Time: Mar 3, 2015 at 9:22:42 AM

Latest Report: Mar 3, 2015 at 8:00 AM


Visibility: N/A

Pressure: 30.29 "Hg

Humidity: 92%

Dew point: 34 °F

Location of VeveyLocation

Historic Weather in Vevey — Graph

°F

Vevey temperature yesterday

Maximum temperature yesterday: 53 °F (at 12:00 PM)
Minimum temperature yesterday: 44 °F (at 2:00 AM)
Average temperature yesterday: 47 °F

Past Weeks' High & Low Weather Summary

 TemperatureHumidityPressure
High53 °F (Mar 2, 12:00 PM)99% (Feb 21, 9:00 PM)30.66 "Hg (Feb 21, 9:00 PM)
Low28 °F (Feb 19, 6:00 AM)35% (Feb 20, 11:00 AM)29.58 "Hg (Feb 21, 11:00 AM)
Average39 °F78%30.10 "Hg
* Reported Feb 16 8:00 AM — Mar 3 8:00 AM, Vevey, Weather by CustomWeather, © 2015

Note: Actual official high and low records may vary slightly from our data, if they occured in-between our weather recording intervals... More about our weather records

Advertising

Vevey weather history for previous 24 hours

 ConditionsComfort  
Time TempWeatherWind HumidityBarometerVisibility
8:00 AM
Tue, Mar 3
36 °FChilly.3 mph92%30.29 "HgN/A
7:00 AM35 °FPassing clouds.3 mph96%30.29 "Hg19 mi
6:00 AM36 °FChilly.1 mph97%30.28 "HgN/A
5:00 AM38 °FChilly.1 mph94%30.28 "HgN/A
4:00 AM38 °FChilly.1 mph94%30.27 "HgN/A
3:00 AM39 °FChilly.2 mph92%30.28 "HgN/A
2:00 AM41 °FQuite cool.7 mph85%30.27 "HgN/A
1:00 AM42 °FQuite cool.2 mph82%30.28 "HgN/A
12:00 AM44 °FQuite cool.2 mph74%30.26 "HgN/A
11:00 PM
Mon, Mar 2
46 °FCool.9 mph68%30.23 "HgN/A
9:00 PM49 °FCool.7 mph50%30.17 "HgN/A
8:00 PM49 °FCool.10 mph51%30.13 "HgN/A
7:00 PM49 °FLight rain. Overcast.14 mph57%30.10 "Hg11 mi
6:00 PM50 °FCool.13 mph50%30.06 "HgN/A
5:00 PM48 °FCool.7 mph66%30.06 "HgN/A
4:00 PM51 °FLight rain. Overcast.13 mph55%30.03 "Hg10 mi
3:00 PM50 °FCool.12 mph67%30.02 "HgN/A
2:00 PM47 °FCool.29 mph73%30.01 "HgN/A
1:00 PM52 °FOvercast.17 mph65%29.95 "Hg11 mi
12:00 PM53 °FCool.20 mph60%29.96 "HgN/A
11:00 AM48 °FCool.2 mph90%29.97 "HgN/A
10:00 AM48 °FRain. Overcast.9 mph90%29.96 "Hg7 mi
9:00 AM49 °FCool.8 mph83%29.94 "HgN/A
Weather by CustomWeather, © 2015

See weather overviewHow to use our weather pages